Regional Weather Roundup
Issued by NWS

Home | Current Version | Previous Version | Text Only | Print | Product List | Glossary On
Versions: 1 2 3 4 5 6 7 8 9 10 11 12 13 14 15 16 17 18 19 20 21 22 23 24 25 26 27 28 29 30 31 32 33 34 35 36 37 38 39 40 41 42 43 44 45 46 47 48 49 50
000
ASHW40 PHFO 211243
RWRHI

WEATHER ROUNDUP FOR HAWAII
NATIONAL WEATHER SERVICE HONOLULU HI
200 AM HST TUE OCT 21 2014

THIS IS AN AUTOMATED REPORT THAT HAS NOT BEEN QUALITY CONTROLLED.

NOTE..."FAIR" INDICATES FEW OR NO CLOUDS BELOW 12,000 FEET WITH NO
SIGNIFICANT WEATHER AND/OR OBSTRUCTIONS TO VISIBILITY.

* - THESE SITES REPORT LIMITED FIELDS

HIZ001>004-211300-
KAUAI-NIIHAU-

CITY           SKY/WX    TMP DP  RH WIND       PRES   REMARKS
LIHUE APT      CLOUDY    79  71  76 E15       30.00F
PORT ALLEN*      N/A     79 N/A N/A E10         N/A
POIPU*           N/A     79 N/A N/A NE7G14      N/A
PRINCEVILLE*     N/A     34 N/A N/A MISG        N/A
KOKOLE POINT*  NOT AVBL
MOLOAA DAIRY*  NOT AVBL
WAIMEA HTS*      N/A     75  66  73 E12         N/A
PUU OPAE*        N/A    N/A N/A N/A E1G7        N/A
PUU LUA*       NOT AVBL
MAKAHA RIDGE*  NOT AVBL
$$

HIZ005>011-211300-
OAHU-

CITY           SKY/WX    TMP DP  RH WIND       PRES   REMARKS
HONOLULU       CLOUDY    77  70  79 E6        29.98F
KALAELOA       CLOUDY    74  69  85 NE3       30.00F
KANEOHE MCB    MOCLDY    79  70  74 E8        30.00F
WHEELER FIELD  MOCLDY    70  64  83 VRB7      30.05
BELLOWS*         N/A    N/A N/A N/A E13         N/A
KAHUKU*          N/A    N/A N/A N/A E7          N/A
WHEELER*       NOT AVBL
WAIANAE HARBOR NOT AVBL
DILLINGHAM*      N/A     70  68  94 E2          N/A
KAHUKU TRN*      N/A     75  70  83 E7G15       N/A
KAWAILOA*        N/A     73  66  78 E3G12       N/A
KII*             N/A     79  72  78 E15         N/A
MAKUA RANGE*     N/A     73  66  78 E3          N/A
OAHU FOREST NW   N/A     68  68 100 NW8G25      N/A
SCHOFIELD BRK*   N/A     70  68  94 MISG        N/A
SCHOFIELD S*   NOT AVBL
WAIANAE VLY*     N/A     72  63  73 N3G14       N/A
KUAOKALA*        N/A     75  63  64 CALM        N/A
HONOULIUULI*   NOT AVBL
MOKUOLOE IS*     N/A    N/A N/A N/A MISG        N/A
PALEHUA*         N/A     81  70  69 CALM        N/A
WAIAWA PHB*    NOT AVBL
$$

HIZ012>013-211300-
MOLOKAI-

CITY           SKY/WX    TMP DP  RH WIND       PRES   REMARKS
MOLOKAI AIRPT  CLOUDY    69  68  96 CALM      30.00F
KALAUPAPA      NOT AVBL
MAKAPULAPAI*     N/A     79  72  78 E15G21      N/A
MOLOKAI 1*       N/A     70  54  56 SE5G18      N/A
PUU ALII*        N/A     61  57  87 SE3G15      N/A
$$

HIZ016-211300-
KAHOOLAWE-

CITY           SKY/WX    TMP DP  RH WIND       PRES   REMARKS
KAHOOLAWE*       N/A     72 N/A N/A E13G21      N/A
HAKIOAWA*      NOT AVBL
HONOKANAIA*      N/A     77  68  73 NE12G26   29.99F
KANELOA*         N/A     73  68  83 E16G26    29.22F
KEALIALALO*    NOT AVBL
LUA MAKIKA*    NOT AVBL
$$

HIZ014>015-211300-
LANAI-

CITY           SKY/WX    TMP DP  RH WIND       PRES   REMARKS
LANAI CITY       N/A    N/A N/A N/A N3        30.04
LANAI 1*         N/A     70  70 100 NE9         N/A
$$

HIZ017>028-211300-
MAUI-

CITY           SKY/WX    TMP DP  RH WIND       PRES   REMARKS
KAHULUI        PTCLDY    71  68  90 CALM      29.99F
KAPALUA-W MAUI NOT AVBL
HANA AIRPORT   MOCLDY    75  70  83 SE5       30.01F
HANA*            N/A     77 N/A N/A SE5         N/A
HALEAKALA SUMM   N/A     50  27  40 E9G28       N/A
MAALAEA BAY*   NOT AVBL
HALEAKALA*     NOT AVBL
KAUPO GAP*       N/A     66  55  68 N5G25       N/A
KULA 1*          N/A    N/A N/A N/A E6          N/A
$$

HIZ023>026-211300-
BIG ISLAND OF HAWAII COAST AND LOWER SLOPES-

CITY           SKY/WX    TMP DP  RH WIND       PRES   REMARKS
KAILUA KONA    PTCLDY    78  71  79 SE3       29.96F
HILO           PTCLDY    69  59  70 SW8       30.01F
HONOKAA*       NOT AVBL
KAWAIHAE MWT*    N/A     77 N/A N/A E6          N/A
KAWAIHAE*        N/A     79 N/A N/A NE9         N/A
SOUTH POINT*     N/A     70 N/A N/A NE10        N/A
UPOLU AIRPORT*   N/A    N/A N/A N/A E9          N/A
KAMUELA*       SUNNY     59  55  88 NE3       30.10F
HAKALAU*         N/A     48  34  57 S3G10       N/A
KALOKO-HONOKO*   N/A     75  70  83 E2        29.95F
PALI 2*          N/A     64 -13   4 VRB8        N/A
KEALAKOMO*       N/A     79  66  65 NE6G12      N/A
KAUPULEHU*       N/A     72  64  78 SE7         N/A
KAPAPALA*        N/A     65  55  69 N3G12       N/A
LOWER KAHUKU*  NOT AVBL
PUHE CS*       NOT AVBL
PUHO CS*         N/A     75  68  78 E2          N/A
PTA KEAMUKU*     N/A     63  59  88 S8          N/A
WAIKOLOA*        N/A     72  61  68 SE8         N/A
$$

HIZ027>028-211300-
BIG ISLAND OF HAWAII INTERIOR AND SUMMMITS-

CITY           SKY/WX    TMP DP  RH WIND       PRES   REMARKS
BRADSHAW FIELD CLEAR     53  33  46 SE7G17    30.35S
MK VISITOR CEN NOT AVBL
MAUNA KEA*       N/A     39  -8  13 CALM        N/A
MAUNA LOA*       N/A    N/A N/A N/A MISG        N/A
MAUNA LOA 1*   NOT AVBL
PTA KIPUKA*      N/A     57  55  94 SE5         N/A
PTA RANGE 17*    N/A     57  34  41 NE7G25      N/A
PTA WEST*        N/A     57  55  94 SE7         N/A
NENE CABIN*    NOT AVBL
AHUMOA*          N/A    N/A N/A N/A NE7         N/A
PTA PORTABLE*  NOT AVBL
PUU MALI*      NOT AVBL
$$

HIC003-211300-
NORTHWEST ISLANDS-

CITY           SKY/WX    TMP DP  RH WIND       PRES   REMARKS
MIDWAY ISLAND  CLEAR     79  77  94 S7        29.98F
MIDWAY NOS*    NOT AVBL
FRENCH FRIGATE NOT AVBL
$$

PHZ110>124-180-211300-
BUOY REPORTS

STATION/POSITION TIME  TEMP    WIND        PRES    WAVE   SWELL
                       AIR SEA DIR/SP/G            HT/PER HT/DIR
                 (UTC) (F)     (DEG/KT/KT) (MB)    (FT/S) (FT/D)
BUOY 51001       NOT AVBL
BUOY 51101       NOT AVBL
BUOY 51100       1200   79 80  100/ 16     1017.3F
BUOY 51003       1200   81 82  120/ 17/ 19 1014.0F   8/ 8   5
BUOY 51004       1114   80 81   90/ 17/ 23 1014.2F   8/14
BARBERS PT BUOY  NOT AVBL
WAIMEA BAY BUOY  1200      81                N/A     6/13   3/350
KAILUA BAY BUOY  1200      81                N/A     8/13   3/350
LANAI BUOY       1200      82                N/A     3/ 7   2/210
BARBERS PT 2     1200      81                N/A     5/10   3/310
PAUWELA MAUI     1200      80                N/A     8/13   5/340
HILO             1200      81                N/A     8/ 8   5/350
KANEOHE BAY BUOY NOT AVBL
HANALEI KAUAI    NOT AVBL
KAHULUI HARBOR   1200   76 80  320/  8/  9 1014.8F
HONOLULU HARBOR  1200   79      90/  2/  5 1015.4F
KILO NALU        NOT AVBL
HILO HARBOR      1200   71     200/  5/  6 1015.5F
MOKUOLOE         1200      81              1015.8F
NAWILIWILI       1200      81                N/A
WHOTS BUOY       NOT AVBL
BUOY 51028       NOT AVBL
$$

......................KEY........................................
  SKY/WX - SKY CONDITIONS/PRESENT WEATHER
  TMP    - TEMPERATURE IN FAHRENHEIT
  DWPT   - DEWPOINT IN FAHRENHEIT
  RH     - RELATIVE HUMIDITY IN PERCENT
  WIND   - DIRECTION AND SPEED /MPH FOR ISLANDS...KTS FOR BUOYS/
  PRES   - MEAN SEA LEVEL PRESSURE IN INCHES OF HG
  VSB    - VISIBILITY IN MILES
  HX     - HEAT INDEX
  WCI    - WIND CHILL INDEX
  VRB    - VARIABLE WIND DIRECTION
  N/A    - NOT AVAILABLE


USA.gov is the U.S. government's official web portal to all federal, state and local government web resources and services.